Location: *
(40.7873°S, 98.7174°E)
Time: 12:18:44
(UTC+00:00)

NOSS 3-4 (C) - Pass Details

Date: 27 September 2022
Orbit: 836 x 1376 km, 63.4° (Epoch: 25 November)

Event Time Altitude Azimuth Distance (km) Brightness Sun altitude
Exits shadow 18:42:19 28° 90° (E) 2,298 5.5 -43.1°
Drops below altitude 10° 18:47:32 10° 127° (SE) 3,346 6.8 -42.5°
Sets 18:50:40 0° 136° (SE) 4,259 7.6 -42.2°
